Location: Dehesa de la Cepeda
(40.6574°N, 4.3013°W)
Time: 19:04:26
(UTC+00:00)

Transit 2A Rocket - Pass Details

Date: 09 August 2021
Orbit: 586 x 917 km, 66.7° (Epoch: 28 September)

Event Time Altitude Azimuth Distance (km) Brightness Sun altitude
Rises 11:30:58 0° 185° (S) 2,824 8.3 62.6°
Reaches altitude 10° 11:33:17 10° 176° (S) 1,951 7.7 62.8°
Maximum altitude 11:37:14 34° 111° (ESE) 1,045 6.7 63.2°
Drops below altitude 10° 11:41:29 10° 47° (NE) 2,101 7.3 63.5°
Sets 11:44:04 0° 38° (NE) 3,076 8.0 63.7°
